Location: Unspecified
(0.0000°N, 0.0000°E)
Time: 22:18:38
(UTC+00:00)

Altair - Visible Passes

Search period start: 28 May 2022 00:00
Search period end: 07 June 2022 00:00
Orbit: 1501 x 1683 km, 47.2° (Epoch: 27 May)

Date Brightness Start Highest point End Pass type
(mag) Time Alt. Az. Time Alt. Az. Time Alt. Az.
28 May 9.7 22:28:33 10° N 22:28:59 11° N 22:28:59 11° N visible
29 May 9.6 22:03:58 10° N 22:04:51 12° NNE 22:04:51 12° NNE visible
30 May 9.6 21:39:33 10° NNE 21:40:45 12° NNE 21:40:45 12° NNE visible
31 May 9.5 21:15:25 10° NNE 21:16:43 11° NNE 21:16:43 11° NNE visible
31 May 9.8 23:14:33 10° NNW 23:14:43 11° NNW 23:14:43 11° NNW visible
01 Jun 9.5 20:52:09 10° NNE 20:52:43 10° NE 20:52:43 10° NE visible
01 Jun 9.6 22:49:25 10° NNW 22:50:44 15° NNW 22:50:44 15° NNW visible
02 Jun 9.4 22:24:19 10° NNW 22:26:47 19° NNW 22:26:47 19° NNW visible
03 Jun 9.1 21:59:15 10° NNW 22:02:53 24° NNW 22:02:53 24° NNW visible
04 Jun 8.9 21:34:13 10° NNW 21:39:01 29° N 21:39:01 29° N visible
05 Jun 8.6 21:09:13 10° NNW 21:15:13 32° NNE 21:15:13 32° NNE visible
06 Jun 8.5 20:44:16 10° NNW 20:51:28 33° NNE 20:51:28 33° NNE visible
06 Jun 9.6 22:48:12 10° NW 22:49:29 15° WNW 22:49:29 15° WNW visible
